Location: Burgberg
(50.1428°N, 11.0671°E)
Time: 19:09:27
(UTC+00:00)

Cosmos-2242 - Pass Details

Date: 26 January 2020
Orbit: 590 x 618 km, 82.5° (Epoch: 16 February)

Event Time Altitude Azimuth Distance (km) Brightness Sun altitude
Rises 06:11:05 0° 185° (S) 2,880 6.7 -7.7°
Reaches altitude 10° 06:13:18 10° 184° (S) 1,978 5.9 -7.4°
Maximum altitude 06:17:41 79° 99° (E) 634 3.3 -6.8°
Drops below altitude 10° 06:22:05 10° 12° (NNE) 1,984 5.6 -6.1°
Sets 06:24:19 0° 12° (NNE) 2,890 6.4 -5.8°
